Regional Weather Roundup
Issued by NWS

Home | Current Version | Previous Version | Graphics & Text | Print | Product List | Glossary On
Versions: 1 2 3 4 5 6 7 8 9 10 11 12 13 14 15 16 17 18 19 20 21 22 23 24 25 26 27 28 29 30 31 32 33 34 35 36 37 38 39 40 41 42 43 44 45 46 47 48 49 50
000
ASUS43 KLSX 250207
RWRMO

WEATHER SUMMARY FOR MISSOURI
NATIONAL WEATHER SERVICE SPRINGFIELD MO
900 PM CDT SUN JUL 24 2016

NOTE: "FAIR" INDICATES FEW OR NO CLOUDS BELOW 12,000 FEET WITH NO
       SIGNIFICANT WEATHER AND/OR OBSTRUCTIONS TO VISIBILITY.
       CURRENT SKY AND/OR WEATHER CONDITIONS ARE NOT AVAILABLE FOR
       CHILLICOTHE AND FARMINGTON.

MOZ001>031-035>038-043-044-053-054-250300-
...NORTHERN AND WESTERN MISSOURI...

CITY           SKY/WX    TMP DP  RH WIND       PRES   REMARKS
KANSAS CTY INT CLOUDY    81  69  67 NE10      29.98R
KANSAS C DTWN  CLOUDY    84  71  65 NE12      29.95R
LEE`S SUMMIT   CLOUDY    85  78  80 N18       29.96R HX  96
ST JOSEPH        N/A     77  66  68 N5        29.97S
CHILLICOTHE      N/A     82  70  66 N6        29.96F
KIRKSVILLE     CLOUDY    77  71  82 N5        29.97R

$$
MOZ066>068-077>081-088>096-101>105-250300-
...SOUTHWEST MISSOURI...

CITY           SKY/WX    TMP DP  RH WIND       PRES   REMARKS
SPRINGFIELD    CLEAR     88  73  61 S6        29.97R HX  95
JOPLIN         CLOUDY    87  75  67 S5        29.94S HX  96
BRANSON        MOCLDY    82  75  78 CALM      29.99R

$$
MOZ032>034-039>042-045>050-055>058-069>072-250300-
...CENTRAL MISSOURI...

CITY           SKY/WX    TMP DP  RH WIND       PRES   REMARKS
COLUMBIA       CLEAR     87  79  76 N3        29.93S HX 101
JEFFERSON CITY CLEAR     87  78  74 CALM      29.91S HX 100
ROLLA          CLEAR     82  76  81 S7        29.95R
SEDALIA        MOCLDY    87  79  76 CALM      29.96R HX 101
WHITEMAN AFB   MOCLDY    85  81  86 NE8       29.93R HX 101
OSAGE BEACH    CLEAR     86  80  82 CALM      29.95R HX 101

$$
MOZ051-052-059>065-250300-
...EAST CENTRAL MISSOURI...

CITY           SKY/WX    TMP DP  RH WIND       PRES   REMARKS
ST LOUIS INTL  PTCLDY    92  78  63 S9        29.92R HX 107
SPIRIT OF STL  PTCLDY    89  80  74 S8        29.90R HX 106
ST CHARLES     CLEAR     87  81  82 S5        29.89S HX 104

$$
MOZ072>076-082>087-097>100-106>115-250300-
...SOUTH CENTRAL AND SOUTHEAST MISSOURI...

CITY           SKY/WX    TMP DP  RH WIND       PRES   REMARKS
CAPE GIRARDEAU PTCLDY    82  78  88 CALM      29.95R HX  91
FARMINGTON     CLEAR     83  78  85 S5        29.98R HX  93
POPLAR BLUFF   CLOUDY    84  78  82 CALM      29.95R HX  95
WEST PLAINS    PTCLDY    85  77  77 S6        30.01R HX  95

$$


USA.gov is the U.S. government's official web portal to all federal, state and local government web resources and services.